Temperature
20 20 20 20 20 20 19 19 19 19 19 18 18 18 18 18 18 18 18 17 17 17 17 17 17 17 17 17 17 17 17 17 17 17 17 17 17 17 17 17 17 17 17
20 20 20 20 20 19 19 19 19 19 19 19 18 18 18 18 18 18 17 17 17 17 17 17 17 17 17 17 17 17 17 17 17 16 16 16 17 17 17 17 17 17 17
20 20 20 20 19 20 19 19 19 19 19 18 18 18 18 18 18 18 17 17 17 17 17 17 17 17 17 17 17 17 17 17 17 16 16 16 17 17 17 17 17 17 17
20 20 20 20 20 19 19 19 19 19 19 18 18 18 18 18 18 17 17 17 17 17 17 17 17 17 17 17 17 17 17 17 17 16 16 16 16 16 16 16 16 16 16
20 20 20 20 20 20 19 19 19 19 18 18 18 18 18 17 17 17 17 17 17 17 17 17 17 17 17 17 16 17 16 16 16 16 16 16 16 16 16 16 16 16 16
20 20 20 20 20 19 19 19 19 18 18 18 18 18 18 17 17 17 17 17 17 17 17 17 17 17 16 16 16 16 16 16 16 16 16 16 16 16 16 16 16 16 16
20 20 20 20 20 20 19 19 19 18 18 18 18 18 17 17 17 17 17 17 17 17 17 17 17 16 16 16 16 16 16 16 16 16 16 16 16 16 16 16 16 16 16
20 20 20 20 20 20 19 19 19 19 18 18 18 18 17 17 17 17 17 17 17 17 17 16 16 16 16 16 16 16 16 16 16 16 16 16 16 16 16 16 16 15 15
20 20 20 20 20 20 19 19 19 19 18 18 18 18 17 17 17 17 17 16 16 16 16 16 16 16 16 16 16 16 16 16 16 16 15 15 15 15 15 15 15 15 15
20 20 20 20 20 20 19 19 19 18 18 18 18 18 17 17 17 17 16 16 16 16 16 16 16 16 16 16 16 16 16 15 15 15 15 15 15 15 15 15 15 15 15
21 20 20 20 20 19 19 19 19 18 18 18 17 17 17 17 17 17 16 16 16 16 16 16 15 15 15 15 15 15 15 15 15 15 15 15 15 15 15 15 15 15 15
20 20 20 20 19 19 19 19 18 18 18 18 17 17 17 17 17 17 16 16 16 16 16 16 15 15 15 15 15 15 15 15 15 15 15 15 15 15 15 14 14 14 14
20 20 20 20 19 19 19 19 18 18 18 17 17 17 17 17 17 16 16 16 16 16 15 15 15 15 15 15 15 15 15 14 14 14 15 14 14 14 14 14 14 14 14
20 20 19 19 19 19 19 19 18 18 17 17 17 17 17 17 16 16 16 16 16 16 15 15 15 15 15 15 15 15 14 14 14 14 14 14 14 14 14 14 14 14 14
19 19 19 19 19 19 19 18 18 18 17 17 17 17 17 16 16 16 16 16 16 15 15 15 15 14 14 14 14 14 14 14 14 14 14 14 14 14 14 14 14 14 14
20 20 19 19 19 19 18 18 18 17 17 17 17 17 16 16 16 16 15 15 15 15 15 15 14 14 14 14 14 14 14 14 14 14 14 14 14 14 14 14 14 14 13
19 20 20 19 19 19 18 18 18 17 17 17 16 16 16 16 15 15 15 15 15 15 14 14 14 14 14 14 14 14 13 14 14 14 14 14 14 14 14 14 14 13 13
20 20 20 19 19 19 18 18 17 17 17 16 16 16 16 15 15 15 15 15 14 14 14 14 14 14 14 14 14 14 13 13 13 13 14 14 13 13 13 13 13 13 13
20 20 20 19 19 19 18 18 17 17 17 16 16 16 15 15 15 15 15 15 14 14 14 14 14 14 13 13 13 13 13 13 13 13 13 13 13 13 13 13 13 13 13
20 19 19 19 18 18 18 17 17 17 16 16 16 15 15 15 15 15 14 14 14 14 13 13 13 13 13 13 13 13 13 13 13 13 13 13 13 13 13 13 13 13 13
20 19 19 18 18 18 17 17 17 16 16 16 15 15 15 15 14 14 14 14 14 14 13 13 13 13 13 13 13 13 13 13 13 13 13 13 13 13 13 13 13 12 12
19 19 18 18 17 17 17 17 16 16 16 15 15 15 14 14 14 14 14 14 13 13 13 13 13 13 13 13 13 13 13 13 13 13 13 13 13 13 12 12 12 12 12
19 18 18 17 17 17 17 16 16 16 15 15 14 14 14 14 14 14 13 13 13 13 13 13 13 13 13 13 13 13 13 13 13 12 12 12 12 12 12 12 12 12 12
18 18 17 17 17 17 16 16 16 15 15 15 14 14 14 14 13 13 13 13 13 13 13 13 13 13 13 13 13 13 12 12 12 12 12 12 12 12 12 12 12 12 12
18 17 17 17 17 16 16 16 15 15 15 14 14 14 14 13 13 13 13 13 13 12 12 13 13 12 13 13 12 12 12 12 12 12 12 12 12 12 12 12 12 12 12
17 17 17 16 16 16 15 15 15 15 14 14 14 13 13 13 13 13 13 13 13 12 12 12 12 12 12 12 12 12 12 12 12 12 11 11 11 11 11 11 11 11 11
Wind_Speed
5 4 4 4 4 4 4 5 4 3 3 2 2 2 1 1 1 1 2 2 2 2 2 2 1 2 2 2 2 2 1 1 1 1 2 3 2 1 1 1 1 1 1
4 4 4 4 5 5 5 5 5 5 4 3 3 2 2 1 1 1 1 1 2 2 2 3 2 2 2 1 1 2 1 1 1 1 1 2 3 2 2 2 1 1 1
7 6 5 5 5 6 7 6 6 5 4 4 3 2 1 1 1 1 1 1 1 2 2 3 2 2 2 2 2 2 2 2 1 1 2 1 1 2 2 2 2 2 2
6 6 6 6 6 6 5 5 5 4 4 4 4 4 3 2 2 1 1 1 1 1 2 2 3 2 2 2 2 2 2 3 1 0 0 1 2 1 1 1 1 2 2
7 7 7 7 6 5 5 5 4 4 3 4 4 4 2 2 1 0 0 1 0 1 1 2 2 2 2 2 2 1 2 2 2 1 1 0 0 1 2 2 2 1 1
7 7 6 5 4 4 5 5 5 4 3 4 4 4 4 3 2 1 0 1 0 0 1 1 2 2 2 2 2 2 3 2 2 2 1 1 1 1 2 2 1 2 1
7 7 7 7 7 6 6 5 5 4 4 4 4 4 4 4 3 3 2 2 1 1 2 1 1 1 2 2 2 2 2 3 3 3 2 2 2 1 2 2 1 1 1
7 8 8 8 7 6 6 6 6 5 5 5 4 4 4 3 3 3 2 2 2 2 2 2 2 2 2 2 2 2 2 2 2 3 2 2 2 2 2 2 2 1 1
8 8 7 7 7 7 7 7 7 5 5 5 4 4 4 4 3 2 2 2 2 1 1 2 1 2 2 2 2 2 2 2 2 2 2 2 2 2 2 2 3 3 2
6 6 6 6 6 6 5 5 5 5 4 4 4 4 4 4 3 2 2 2 2 1 1 1 2 2 2 2 2 2 2 2 2 2 2 2 2 1 1 2 2 2 3
6 6 6 5 5 5 5 5 4 4 4 4 4 4 3 3 3 3 3 3 2 2 2 2 2 2 2 2 2 2 2 3 3 2 3 3 2 2 1 1 1 2 2
5 5 5 5 5 5 5 5 5 5 5 4 4 3 3 3 3 3 3 2 2 2 2 2 2 2 2 2 3 3 3 3 3 3 3 3 2 2 2 2 2 2 3
4 4 4 5 5 5 5 5 5 5 4 3 3 3 3 3 4 4 3 2 2 2 2 2 2 3 2 2 3 3 3 4 4 4 4 4 3 3 3 3 3 3 3
4 4 4 4 5 5 5 5 5 4 4 3 4 4 4 4 4 4 3 3 3 3 2 2 3 3 3 2 2 3 3 3 4 4 4 5 5 6 5 4 4 4 3
4 5 4 4 3 3 3 4 4 4 4 4 4 5 4 3 3 3 3 3 3 3 3 3 3 2 2 3 3 3 3 3 4 4 5 5 6 7 6 5 5 5 4
6 5 5 4 4 5 4 4 4 4 4 5 5 4 3 3 3 3 3 3 3 3 3 3 3 3 4 4 4 3 3 4 4 4 5 5 6 6 7 8 7 8 6
6 6 6 6 6 6 6 6 5 4 4 4 4 4 3 3 3 3 2 3 4 3 3 4 4 4 5 5 5 5 3 4 5 5 5 4 5 5 5 6 6 8 9
6 6 5 6 5 5 5 5 5 5 5 4 4 3 3 3 3 3 3 3 3 3 4 5 5 4 5 5 5 5 4 4 5 6 6 6 5 5 6 5 5 6 7
6 6 6 6 5 5 5 5 4 4 4 4 4 4 4 4 4 4 4 3 3 4 4 4 4 4 5 5 6 4 3 4 6 6 5 6 6 7 7 5 5 5 5
4 4 4 5 5 5 5 5 5 5 5 5 5 4 4 4 4 4 4 3 3 4 4 4 4 5 5 7 7 5 3 4 5 5 5 6 6 6 6 6 6 6 5
4 4 5 5 6 6 6 5 5 6 6 4 3 3 4 4 4 4 3 3 3 3 4 4 4 4 6 7 8 7 4 5 4 4 4 4 5 6 7 6 6 7 6
3 4 5 5 4 5 6 6 6 6 4 4 3 3 4 4 3 3 3 2 2 3 3 3 4 4 4 6 6 7 7 6 4 5 4 4 5 6 6 5 6 6 5
4 4 6 5 4 5 7 7 6 5 4 3 3 3 3 3 3 3 3 2 2 3 3 3 4 4 3 4 5 5 5 5 4 4 5 4 4 4 4 5 5 5 4
4 4 5 5 5 5 5 6 5 4 4 4 4 3 3 2 2 2 3 3 4 4 4 4 4 4 4 3 2 3 3 3 3 2 2 2 2 1 2 2 3 3 4
4 4 6 7 7 6 5 5 4 5 4 4 3 3 3 3 3 3 3 5 5 5 5 5 5 4 5 5 5 3 3 3 3 1 0 1 1 1 1 1 2 2 3
4 4 5 6 6 5 6 5 5 5 5 4 4 3 3 3 3 3 3 4 6 7 8 8 6 5 7 7 6 5 4 4 3 2 1 2 2 2 2 2 2 2 3
Wind_Direction
208 185 184 180 175 179 180 181 180 178 155 147 159 164 200 238 260 245 244 233 214 186 165 175 170 160 158 166 154 142 120 79 76 58 8 358 4 11 360 356 355 329 299
199 191 182 176 182 187 190 187 185 179 175 180 176 170 173 202 219 253 268 241 217 201 180 171 174 174 159 144 143 138 135 126 104 108 61 358 352 1 9 18 28 23 50
202 197 192 191 191 194 194 193 187 182 181 171 141 115 76 27 9 330 298 275 210 194 177 168 165 170 160 166 172 162 161 179 184 138 154 157 244 311 344 14 24 22 33
199 197 196 196 197 198 187 180 177 175 173 160 159 164 176 204 230 234 245 284 165 176 174 170 163 162 154 166 193 170 168 166 194 239 233 198 183 199 313 340 4 9 4
197 201 201 199 195 183 172 167 158 158 158 155 162 163 177 197 191 142 307 336 22 170 175 166 151 155 158 169 174 165 165 171 181 190 194 188 200 212 212 273 313 338 319
197 199 197 187 185 175 169 161 154 160 153 153 156 161 169 168 144 145 198 286 274 273 219 180 173 181 180 187 190 186 177 183 182 185 175 175 182 201 203 229 264 284 294
195 193 188 187 187 183 179 172 166 171 166 164 173 179 180 179 187 200 208 218 221 238 250 220 196 198 201 197 184 179 191 196 192 200 205 205 215 197 188 192 217 251 290
193 194 193 190 188 184 181 177 175 178 177 178 185 187 182 187 203 208 208 212 219 230 231 207 194 196 203 204 178 179 199 196 204 215 205 210 227 210 198 190 179 227 284
193 193 189 186 188 187 187 185 181 184 186 190 187 187 186 186 200 210 214 222 225 220 200 201 209 214 208 203 186 193 203 192 207 219 218 223 232 215 218 205 192 187 225
191 189 186 184 187 187 182 178 181 187 190 193 200 198 201 199 198 197 213 222 221 208 188 219 220 222 222 205 191 195 195 194 219 213 209 231 238 226 213 201 206 202 202
193 187 182 182 179 169 168 179 187 187 193 200 204 200 206 205 192 195 212 217 216 205 204 214 227 234 239 214 194 213 202 207 228 226 215 228 224 213 214 188 188 197 187
191 180 171 165 169 176 181 188 192 199 206 201 195 206 209 204 200 209 215 208 214 226 222 212 222 236 234 219 207 219 215 214 228 234 225 232 220 218 216 191 202 212 207
167 164 170 175 181 186 191 190 191 202 205 187 189 201 208 205 214 219 219 209 206 218 222 212 222 242 247 236 224 212 219 223 229 229 224 227 210 226 224 206 208 216 211
174 178 187 191 192 190 187 184 187 185 181 181 190 209 219 214 220 226 222 216 210 213 224 229 234 239 243 242 234 222 227 234 240 237 231 228 217 219 219 215 212 204 196
186 193 195 199 189 183 180 172 174 177 179 184 203 220 227 220 221 230 233 225 221 227 222 230 251 258 251 247 237 240 246 241 249 252 244 237 224 220 215 214 205 195 192
204 199 194 190 186 184 177 171 179 182 175 186 209 221 223 222 227 235 239 239 240 237 222 227 238 249 257 262 247 238 254 254 247 253 257 249 235 230 224 219 207 196 195
208 204 203 199 196 191 181 184 192 180 177 194 211 215 214 224 237 238 237 244 244 241 239 237 234 243 252 254 255 246 242 252 252 246 247 253 247 230 226 225 223 221 218
213 211 204 198 197 188 182 181 175 176 187 201 214 217 215 227 235 228 234 242 241 240 242 243 240 244 255 253 256 252 247 256 260 250 242 242 248 236 220 222 228 231 230
212 208 200 196 187 187 186 174 180 183 189 205 217 223 221 225 228 233 241 237 231 242 242 246 242 248 262 254 248 237 248 263 269 262 249 242 244 238 218 213 225 237 243
212 201 188 175 181 192 178 173 187 190 204 214 220 218 214 216 224 231 236 234 223 241 247 249 240 240 256 256 246 232 233 257 270 272 262 246 240 238 217 212 214 225 233
207 189 180 186 195 186 174 183 195 211 219 216 216 219 216 218 222 225 229 232 232 236 243 251 254 247 248 252 249 238 228 236 253 264 266 257 240 233 221 214 217 220 213
211 189 185 199 197 181 176 191 211 220 211 200 205 220 226 226 221 210 225 222 224 240 254 264 279 270 259 250 251 245 237 233 234 248 255 253 239 232 225 219 221 211 199
217 201 191 197 205 196 188 199 216 206 199 199 211 221 224 228 218 209 218 224 223 235 253 257 268 275 269 254 243 243 239 232 233 245 251 255 251 242 229 224 216 200 198
226 208 189 195 213 215 210 213 208 196 193 206 223 225 218 231 237 225 216 218 223 232 243 249 261 271 272 262 255 255 252 248 246 262 274 280 277 244 226 220 211 206 204
232 209 206 212 221 220 221 219 198 185 196 208 221 225 223 220 229 235 231 227 228 222 226 238 240 249 262 256 243 238 241 236 235 232 298 315 306 290 252 235 216 200 195
234 222 222 224 228 223 225 219 199 191 194 208 221 224 224 224 224 231 262 252 239 241 236 233 233 245 247 253 251 247 239 225 196 160 218 243 242 244 243 236 230 213 210
Height
1509 1511 1513 1514 1516 1517 1518 1519 1521 1521 1522 1522 1523 1523 1524 1525 1525 1526 1526 1527 1527 1527 1528 1528 1529 1529 1529 1530 1530 1530 1530 1530 1531 1531 1530 1531 1531 1530 1530 1530 1530 1531 1531
1508 1509 1511 1512 1514 1515 1516 1517 1519 1520 1521 1521 1522 1522 1523 1524 1524 1525 1525 1526 1526 1526 1527 1527 1528 1528 1528 1529 1529 1529 1529 1529 1530 1530 1530 1530 1531 1530 1530 1530 1530 1530 1530
1506 1507 1508 1510 1512 1512 1514 1515 1516 1518 1519 1520 1521 1521 1522 1523 1523 1523 1524 1524 1524 1525 1525 1526 1527 1527 1527 1528 1528 1528 1528 1529 1529 1529 1530 1530 1529 1529 1529 1529 1529 1529 1529
1503 1505 1506 1508 1509 1510 1512 1513 1515 1516 1517 1518 1519 1520 1520 1521 1521 1522 1522 1523 1523 1524 1524 1525 1525 1526 1526 1526 1527 1527 1527 1528 1528 1529 1529 1529 1529 1529 1528 1528 1528 1528 1528
1500 1502 1503 1505 1507 1509 1510 1512 1513 1514 1515 1516 1518 1518 1519 1519 1520 1521 1521 1522 1522 1522 1523 1524 1524 1524 1525 1525 1525 1526 1526 1527 1527 1527 1527 1527 1527 1528 1527 1526 1527 1527 1527
1498 1499 1501 1503 1505 1507 1508 1510 1511 1513 1514 1515 1516 1517 1517 1518 1518 1519 1519 1520 1520 1521 1522 1522 1522 1523 1523 1523 1524 1524 1525 1525 1525 1525 1526 1526 1526 1526 1525 1525 1524 1525 1525
1495 1496 1498 1500 1503 1505 1506 1508 1510 1511 1513 1514 1515 1515 1516 1516 1516 1517 1517 1518 1518 1519 1520 1520 1520 1521 1521 1522 1522 1522 1523 1523 1523 1523 1523 1524 1524 1524 1524 1523 1523 1523 1523
1492 1494 1495 1498 1500 1502 1504 1506 1508 1509 1511 1512 1513 1514 1514 1514 1515 1515 1515 1516 1516 1517 1517 1518 1518 1519 1519 1519 1520 1520 1520 1520 1521 1521 1521 1521 1521 1521 1521 1521 1521 1521 1521
1490 1491 1494 1496 1498 1500 1502 1504 1506 1508 1509 1510 1511 1512 1512 1512 1513 1513 1514 1514 1514 1514 1515 1515 1516 1516 1516 1517 1517 1517 1517 1518 1518 1518 1518 1518 1519 1519 1519 1519 1519 1520 1518
1488 1490 1492 1494 1496 1499 1501 1503 1505 1506 1507 1509 1509 1510 1510 1511 1511 1512 1512 1512 1512 1512 1512 1512 1513 1513 1514 1514 1514 1514 1514 1515 1515 1515 1515 1515 1516 1516 1516 1516 1516 1517 1517
1486 1488 1490 1493 1495 1497 1500 1502 1503 1505 1506 1507 1507 1508 1508 1509 1509 1509 1509 1510 1510 1510 1509 1509 1510 1510 1511 1511 1511 1511 1511 1512 1512 1512 1512 1513 1513 1513 1513 1513 1514 1514 1514
1486 1487 1489 1491 1493 1495 1497 1499 1501 1502 1503 1504 1505 1506 1506 1506 1507 1507 1507 1507 1507 1507 1507 1507 1507 1507 1508 1508 1508 1508 1508 1509 1509 1509 1509 1509 1510 1510 1511 1511 1511 1511 1511
1485 1486 1488 1489 1491 1492 1494 1496 1497 1499 1501 1502 1502 1503 1503 1503 1504 1504 1505 1505 1505 1505 1505 1504 1504 1505 1505 1505 1505 1505 1505 1505 1506 1506 1506 1506 1507 1507 1507 1507 1508 1508 1508
1483 1484 1486 1487 1488 1489 1491 1492 1494 1496 1498 1499 1499 1500 1500 1501 1501 1502 1502 1502 1502 1502 1502 1502 1502 1502 1502 1502 1502 1502 1502 1503 1503 1503 1503 1503 1503 1503 1504 1504 1504 1505 1505
1481 1483 1484 1485 1486 1487 1488 1489 1491 1493 1495 1496 1496 1497 1498 1498 1499 1499 1499 1499 1499 1499 1499 1499 1500 1500 1500 1500 1500 1500 1499 1500 1500 1499 1499 1499 1499 1499 1500 1500 1501 1501 1501
1479 1480 1482 1483 1484 1485 1487 1488 1489 1491 1492 1493 1494 1494 1495 1496 1496 1496 1496 1496 1496 1496 1497 1497 1497 1497 1497 1497 1497 1497 1496 1496 1496 1496 1496 1496 1495 1495 1496 1497 1497 1498 1498
1476 1477 1479 1480 1482 1483 1485 1486 1488 1489 1489 1490 1491 1492 1492 1492 1493 1493 1493 1494 1494 1494 1493 1494 1494 1494 1494 1494 1494 1494 1494 1493 1493 1493 1492 1492 1492 1492 1492 1493 1493 1494 1494
1475 1476 1477 1478 1480 1482 1483 1485 1485 1486 1487 1487 1488 1489 1489 1489 1490 1490 1490 1490 1491 1491 1491 1491 1491 1490 1490 1490 1490 1491 1490 1490 1490 1489 1488 1488 1488 1488 1488 1489 1489 1489 1490
1473 1474 1475 1476 1477 1479 1481 1482 1482 1483 1483 1484 1485 1486 1486 1487 1487 1487 1487 1487 1488 1488 1488 1488 1487 1487 1487 1487 1487 1487 1486 1486 1486 1485 1485 1484 1484 1484 1484 1484 1484 1485 1486
1471 1472 1472 1473 1475 1476 1478 1479 1479 1480 1480 1481 1482 1482 1483 1483 1484 1484 1484 1484 1484 1484 1484 1484 1484 1483 1483 1483 1483 1483 1483 1482 1482 1481 1480 1480 1479 1479 1480 1480 1480 1480 1481
1469 1469 1470 1471 1472 1473 1474 1475 1476 1476 1477 1478 1479 1479 1480 1480 1480 1481 1481 1481 1480 1480 1480 1480 1480 1479 1479 1479 1479 1479 1478 1478 1477 1477 1476 1476 1476 1475 1475 1476 1476 1476 1478
1466 1466 1467 1468 1469 1470 1471 1471 1472 1474 1475 1475 1476 1477 1477 1477 1477 1477 1477 1477 1477 1477 1477 1476 1476 1475 1475 1475 1475 1475 1475 1474 1473 1473 1472 1472 1471 1471 1471 1471 1472 1473 1474
1463 1464 1464 1464 1466 1467 1467 1468 1469 1470 1471 1471 1472 1473 1473 1474 1473 1474 1474 1473 1474 1474 1473 1472 1472 1471 1471 1471 1471 1471 1471 1471 1470 1469 1469 1468 1467 1467 1467 1467 1468 1469 1470
1461 1461 1461 1461 1462 1463 1464 1464 1465 1467 1467 1468 1468 1469 1469 1469 1470 1470 1470 1470 1470 1470 1470 1469 1468 1468 1468 1467 1467 1467 1467 1466 1466 1466 1465 1465 1464 1463 1463 1463 1464 1465 1466
1458 1458 1458 1458 1459 1460 1460 1461 1461 1463 1463 1464 1464 1465 1465 1465 1466 1467 1467 1467 1467 1467 1467 1466 1466 1465 1464 1464 1464 1463 1463 1462 1462 1462 1461 1461 1461 1460 1460 1461 1461 1462 1463
1454 1454 1455 1455 1455 1456 1456 1457 1458 1459 1459 1460 1460 1461 1461 1462 1462 1462 1463 1463 1464 1464 1463 1463 1463 1462 1462 1461 1461 1461 1460 1460 1459 1459 1458 1458 1458 1458 1458 1458 1458 1459 1460